Overview Statistics Trail Chart Weather Telemetry Raw packets
 

This is the latest recevied weather packets stored in our database for station/object SM0UQT-10. If no packets are shown the sender has not sent any weather packets the latest 10 day(s).

<< 8 9 10 11 12 13 14 >>
Time Temp. Humidity Pressure Rain* Wind** Luminosity Snow
1788425626 14.44° C 62% 995.3 hPa - - - -
1788424726 14.44° C 63% 995.5 hPa - - - -
1788423858 13.89° C 63% 995.5 hPa - - - -
1788423826 13.89° C 63% 995.5 hPa - - - -
1788422926 13.89° C 64% 995.5 hPa - - - -
1788422026 13.33° C 64% 995.6 hPa - - - -
1788421126 13.33° C 65% 995.6 hPa - - - -
1788420226 13.33° C 65% 995.6 hPa - - - -
1788419325 12.78° C 66% 995.7 hPa - - - -
1788418425 12.78° C 66% 995.5 hPa - - - -
1788417525 12.22° C 68% 995.7 hPa - - - -
1788416625 12.22° C 68% 995.5 hPa - - - -
1788415725 11.67° C 69% 995.2 hPa - - - -
1788414825 11.67° C 69% 995.5 hPa - - - -
1788413925 11.11° C 69% 995.5 hPa - - - -
1788413025 11.11° C 69% 995.6 hPa - - - -
1788412125 10.56° C 68% 995.6 hPa - - - -
1788411225 10° C 68% 995.6 hPa - - - -
1788410325 10° C 68% 995.7 hPa - - - -
1788409425 9.44° C 67% 995.6 hPa - - - -
1788408524 9.44° C 66% 995.8 hPa - - - -
1788407624 9.44° C 64% 995.8 hPa - - - -
1788406724 9.44° C 64% 996 hPa - - - -
1788405824 9.44° C 64% 995.7 hPa - - - -
1788404924 10° C 64% 995.8 hPa - - - -

* Rain since midnight (hover to see other rain measurements)
** Current wind speed in m/s (hover to see current wind gust speed)